TimeCDT,TemperatureF,Dew PointF,Humidity,Sea Level PressureIn,VisibilityMPH,Wind Direction,Wind SpeedMPH,Gust SpeedMPH,PrecipitationIn,Events,Conditions,WindDirDegrees,DateUTC
12:15 AM,23.0,23.0,100,29.88,10.0,NNE,9.2,-,N/A,,Overcast,20,2013-03-16 05:15:00
12:35 AM,23.0,21.2,93,29.89,10.0,NNE,9.2,-,N/A,,Overcast,20,2013-03-16 05:35:00
12:55 AM,23.0,21.2,93,29.89,10.0,North,10.4,-,N/A,,Overcast,10,2013-03-16 05:55:00
1:15 AM,23.0,21.2,93,29.90,10.0,North,11.5,-,N/A,,Overcast,10,2013-03-16 06:15:00
1:35 AM,23.0,19.4,86,29.91,10.0,North,12.7,-,N/A,,Overcast,10,2013-03-16 06:35:00
1:55 AM,21.2,19.4,93,29.91,7.0,North,11.5,-,N/A,,Overcast,10,2013-03-16 06:55:00
2:15 AM,21.2,19.4,93,29.92,5.0,NNE,11.5,-,N/A,,Overcast,20,2013-03-16 07:15:00
2:35 AM,21.2,19.4,93,29.92,7.0,NNE,9.2,17.3,N/A,,Overcast,20,2013-03-16 07:35:00
2:55 AM,21.2,19.4,93,29.92,7.0,North,10.4,-,N/A,,Overcast,10,2013-03-16 07:55:00
3:15 AM,19.4,17.6,93,29.93,10.0,North,10.4,-,N/A,,Overcast,10,2013-03-16 08:15:00
3:35 AM,19.4,17.6,93,29.93,10.0,NNE,9.2,-,N/A,,Overcast,20,2013-03-16 08:35:00
3:55 AM,19.4,17.6,93,29.94,10.0,North,11.5,-,N/A,,Overcast,10,2013-03-16 08:55:00
4:15 AM,19.4,15.8,86,29.95,10.0,North,11.5,-,N/A,,Overcast,10,2013-03-16 09:15:00
4:35 AM,19.4,14.0,80,29.95,10.0,NNE,11.5,-,N/A,,Overcast,20,2013-03-16 09:35:00
4:55 AM,19.4,14.0,80,29.95,10.0,North,12.7,-,N/A,Snow,Light Snow,10,2013-03-16 09:55:00
5:15 AM,19.4,14.0,80,29.97,10.0,North,11.5,-,N/A,,Overcast,10,2013-03-16 10:15:00
5:35 AM,19.4,14.0,80,29.98,10.0,North,10.4,-,N/A,,Overcast,10,2013-03-16 10:35:00
5:55 AM,19.4,14.0,80,29.99,10.0,North,8.1,-,N/A,,Overcast,10,2013-03-16 10:55:00
6:15 AM,19.4,14.0,80,29.99,10.0,North,9.2,-,N/A,,Overcast,10,2013-03-16 11:15:00
6:35 AM,19.4,14.0,80,30.01,10.0,North,9.2,-,N/A,,Overcast,360,2013-03-16 11:35:00
7:15 AM,15.8,12.2,86,30.03,10.0,North,6.9,-,N/A,,Mostly Cloudy,360,2013-03-16 12:15:00
7:35 AM,14.0,10.4,86,30.04,10.0,North,9.2,-,N/A,,Scattered Clouds,360,2013-03-16 12:35:00
7:55 AM,14.0,10.4,86,30.06,10.0,North,9.2,-,N/A,,Clear,360,2013-03-16 12:55:00
8:15 AM,14.0,10.4,86,30.06,10.0,North,9.2,-,N/A,,Clear,360,2013-03-16 13:15:00
8:35 AM,14.0,10.4,86,30.07,10.0,North,8.1,-,N/A,,Clear,360,2013-03-16 13:35:00
8:55 AM,15.8,10.4,79,30.07,10.0,North,8.1,-,N/A,,Clear,360,2013-03-16 13:55:00
9:15 AM,15.8,10.4,79,30.08,10.0,North,6.9,-,N/A,,Clear,360,2013-03-16 14:15:00
9:35 AM,17.6,10.4,73,30.08,10.0,North,6.9,-,N/A,,Clear,360,2013-03-16 14:35:00
9:55 AM,17.6,10.4,73,30.09,10.0,North,6.9,-,N/A,,Clear,360,2013-03-16 14:55:00
10:15 AM,19.4,10.4,68,30.09,10.0,North,5.8,-,N/A,,Clear,360,2013-03-16 15:15:00
10:35 AM,19.4,10.4,68,30.09,10.0,North,4.6,-,N/A,,Clear,360,2013-03-16 15:35:00
10:55 AM,21.2,10.4,63,30.09,10.0,North,4.6,-,N/A,,Clear,10,2013-03-16 15:55:00
11:15 AM,21.2,10.4,63,30.10,10.0,NNW,5.8,-,N/A,,Clear,340,2013-03-16 16:15:00
11:35 AM,21.2,10.4,63,30.10,10.0,NNW,8.1,-,N/A,,Clear,330,2013-03-16 16:35:00
11:55 AM,21.2,10.4,63,30.10,10.0,NNW,6.9,-,N/A,,Clear,340,2013-03-16 16:55:00
12:15 PM,23.0,12.2,63,30.10,10.0,NNW,6.9,-,N/A,,Clear,330,2013-03-16 17:15:00
12:35 PM,23.0,12.2,63,30.10,10.0,NW,8.1,-,N/A,,Clear,320,2013-03-16 17:35:00
12:55 PM,23.0,12.2,63,30.11,10.0,NW,9.2,-,N/A,,Clear,310,2013-03-16 17:55:00
1:15 PM,23.0,12.2,63,30.11,10.0,WNW,10.4,-,N/A,,Scattered Clouds,290,2013-03-16 18:15:00
1:35 PM,23.0,12.2,63,30.11,10.0,WNW,12.7,-,N/A,,Mostly Cloudy,300,2013-03-16 18:35:00
1:55 PM,23.0,12.2,63,30.11,10.0,NNW,12.7,-,N/A,,Mostly Cloudy,330,2013-03-16 18:55:00
2:15 PM,24.8,14.0,64,30.11,10.0,NW,10.4,-,N/A,,Overcast,310,2013-03-16 19:15:00
2:35 PM,24.8,12.2,59,30.10,10.0,WNW,11.5,-,N/A,,Overcast,300,2013-03-16 19:35:00
2:55 PM,23.0,12.2,63,30.10,10.0,NW,9.2,-,N/A,,Overcast,320,2013-03-16 19:55:00
3:15 PM,24.8,12.2,59,30.09,10.0,WNW,12.7,-,N/A,,Scattered Clouds,300,2013-03-16 20:15:00
3:35 PM,24.8,12.2,59,30.09,10.0,WNW,10.4,-,N/A,,Clear,290,2013-03-16 20:35:00
3:55 PM,24.8,12.2,59,30.08,10.0,WNW,11.5,-,N/A,,Clear,300,2013-03-16 20:55:00
4:15 PM,24.8,10.4,54,30.08,10.0,NNW,11.5,-,N/A,,Clear,330,2013-03-16 21:15:00
4:35 PM,24.8,10.4,54,30.08,10.0,NW,11.5,-,N/A,,Clear,320,2013-03-16 21:35:00
4:55 PM,23.0,8.6,54,30.08,10.0,NW,13.8,20.7,N/A,,Clear,310,2013-03-16 21:55:00
5:15 PM,23.0,8.6,54,30.07,10.0,NW,12.7,-,N/A,,Clear,320,2013-03-16 22:15:00
5:35 PM,23.0,8.6,54,30.07,10.0,NW,12.7,-,N/A,,Clear,320,2013-03-16 22:35:00
5:55 PM,21.2,8.6,58,30.07,10.0,NW,15.0,18.4,N/A,,Clear,310,2013-03-16 22:55:00
6:15 PM,21.2,8.6,58,30.07,10.0,NW,12.7,-,N/A,,Clear,310,2013-03-16 23:15:00
6:35 PM,21.2,8.6,58,30.08,10.0,NW,12.7,-,N/A,,Clear,310,2013-03-16 23:35:00
6:55 PM,19.4,8.6,63,30.09,10.0,WNW,9.2,-,N/A,,Clear,300,2013-03-16 23:55:00
7:15 PM,19.4,8.6,63,30.11,10.0,WNW,10.4,-,N/A,,Clear,300,2013-03-17 00:15:00
7:35 PM,19.4,6.8,58,30.11,10.0,WNW,9.2,-,N/A,,Clear,290,2013-03-17 00:35:00
7:55 PM,17.6,6.8,63,30.13,10.0,WNW,8.1,-,N/A,,Clear,290,2013-03-17 00:55:00
8:15 PM,17.6,6.8,63,30.14,10.0,WNW,8.1,-,N/A,,Clear,290,2013-03-17 01:15:00
8:35 PM,17.6,5.0,58,30.15,10.0,WNW,8.1,-,N/A,,Clear,300,2013-03-17 01:35:00
8:55 PM,15.8,5.0,62,30.16,10.0,West,6.9,-,N/A,,Clear,280,2013-03-17 01:55:00
9:15 PM,14.0,5.0,67,30.16,10.0,WNW,8.1,-,N/A,,Clear,290,2013-03-17 02:15:00
9:35 PM,14.0,5.0,67,30.16,10.0,WNW,9.2,-,N/A,,Clear,290,2013-03-17 02:35:00
9:55 PM,14.0,5.0,67,30.17,10.0,WNW,8.1,-,N/A,,Clear,300,2013-03-17 02:55:00
10:15 PM,12.2,3.2,67,30.17,10.0,NW,5.8,-,N/A,,Clear,310,2013-03-17 03:15:00
10:35 PM,12.2,3.2,67,30.17,10.0,NW,8.1,-,N/A,,Clear,310,2013-03-17 03:35:00
10:55 PM,10.4,3.2,73,30.18,10.0,NW,8.1,-,N/A,,Clear,310,2013-03-17 03:55:00
11:15 PM,10.4,3.2,73,30.20,10.0,NW,9.2,-,N/A,,Clear,310,2013-03-17 04:15:00
11:35 PM,10.4,3.2,73,30.20,10.0,NW,6.9,-,N/A,,Clear,310,2013-03-17 04:35:00
11:55 PM,8.6,1.4,73,30.21,10.0,NNW,9.2,-,N/A,,Clear,330,2013-03-17 04:55:00